This demonstration page uses our WeatherBlox Daily Observations layout. Learn more.

Left ArrowRight Arrow

Hourly Observations for July 14, 2016

Temp ( °F °C ) Dew Point ( °F °C ) Humidity (%) Winds ( mph kmh ) Pressure ( in mb ) Visibility ( mi km ) Precip ( " mm )
12:59 am 00:59 Clear 81 27.2 71 21.7 72 72 WSW 8 13 30.02 1017 10 16 0.00 0.00
1:59 am 01:59 Clear 80 26.7 70 21.1 71 71 WSW 5 7 30.01 1016 10 16 0.00 0.00
2:59 am 02:59 Mostly Clear 78 25.6 71 21.7 79 79 WSW 3 6 29.99 1016 10 16 0.00 0.00
3:59 am 03:59 Clear 75 23.9 71 21.7 88 88 SSW 3 6 29.98 1015 9 14 0.00 0.00
4:59 am 04:59 Partly Cloudy 75 23.9 71 21.7 88 88 SW 3 6 29.98 1015 9 14 0.00 0.00
5:59 am 05:59 Mostly Sunny 76 24.4 71 21.7 85 85 SSW 3 6 29.98 1015 9 14 0.00 0.00
6:59 am 06:59 Mostly Sunny 78 25.6 72 22.2 82 82 SW 5 7 29.99 1016 7 11 0.00 0.00
7:59 am 07:59 Sunny 81 27.2 70 21.1 69 69 SSW 5 7 29.99 1016 9 14 0.00 0.00
8:59 am 08:59 Sunny 84 28.9 72 22.2 67 67 SW 9 15 29.98 1015 7 11 0.00 0.00
9:59 am 09:59 Mostly Sunny 86 30 73 22.8 65 65 SW 7 11 29.99 1016 8 13 0.00 0.00
10:59 am 10:59 Sunny 89 31.7 74 23.3 61 61 WSW 7 11 29.99 1016 8 13 0.00 0.00
11:59 am 11:59 Mostly Sunny 91 32.8 75 23.9 59 59 WSW 7 11 29.99 1016 8 13 0.00 0.00
12:59 pm 12:59 Mostly Sunny 92 33.3 73 22.8 54 54 W 12 19 29.98 1015 9 14 0.00 0.00
1:59 pm 13:59 Mostly Sunny 95 35 73 22.8 49 49 W 9 15 29.97 1015 9 14 0.00 0.00
2:59 pm 14:59 Mostly Sunny 95 35 71 21.7 46 46 W 10 17 29.95 1014 9 14 0.00 0.00
3:59 pm 15:59 Mostly Sunny 95 35 71 21.7 46 46 WSW 9 15 29.93 1014 9 14 0.00 0.00
4:59 pm 16:59 Mostly Sunny 95 35 71 21.7 46 46 WSW 8 13 29.91 1013 10 16 0.00 0.00
5:59 pm 17:59 Mostly Sunny 94 34.4 71 21.7 48 48 SW 10 17 29.91 1013 9 14 0.00 0.00
6:59 pm 18:59 Mostly Sunny 94 34.4 71 21.7 48 48 WSW 13 20 29.91 1013 9 14 0.00 0.00
7:59 pm 19:59 Mostly Sunny 91 32.8 71 21.7 52 52 SW 6 9 29.92 1013 9 14 0.00 0.00
8:59 pm 20:59 Mostly Clear 88 31.1 72 22.2 59 59 SW 5 7 29.94 1014 10 16 0.00 0.00
9:59 pm 21:59 Mostly Clear 85 29.4 74 23.3 70 70 SSW 5 7 29.96 1015 10 16 0.00 0.00
10:59 pm 22:59 Mostly Clear 86 30 74 23.3 67 67 SW 6 9 29.96 1014 10 16 0.00 0.00
11:59 pm 23:59 Mostly Clear 84 28.9 75 23.9 74 74 SSW 5 7 29.96 1015 9 14 0.00 0.00

Powered by AerisWeather